Location: Gilevgi
(36.8751°N, 30.0581°E)
Time: 16:33:27
(UTC+00:00)

BREEZE-M DEB (TANK) - Pass Details

Date: 11 December 2025
Orbit: 603 x 17109 km, 49.5° (Epoch: 16 January)

Event Time Altitude Azimuth Distance (km) Brightness Sun altitude
Rises 17:16:14 0° 243° (WSW) 5,938 9.1 -29.7°
Reaches altitude 10° 17:21:23 10° 248° (WSW) 3,636 7.8 -30.7°
Enters shadow 17:27:31 47° 297° (WNW) 1,043 4.4 -32.0°
